TimeEDT,TemperatureF,Dew PointF,Humidity,Sea Level PressureIn,VisibilityMPH,Wind Direction,Wind SpeedMPH,Gust SpeedMPH,PrecipitationIn,Events,Conditions,WindDirDegrees,DateUTC
12:04 AM,64.4,62.6,94,30.03,10.0,South,3.5,-,N/A,,Mostly Cloudy,180,2013-07-02 04:04:00
12:13 AM,64.4,62.6,94,30.03,10.0,SSE,3.5,-,N/A,,Scattered Clouds,150,2013-07-02 04:13:00
12:54 AM,64.9,64.0,97,29.97,10.0,SE,3.5,-,N/A,,Mostly Cloudy,140,2013-07-02 04:54:00
1:02 AM,64.4,64.4,100,30.04,10.0,SE,3.5,-,N/A,,Mostly Cloudy,140,2013-07-02 05:02:00
1:26 AM,64.4,64.4,100,30.04,10.0,SE,3.5,-,N/A,,Overcast,130,2013-07-02 05:26:00
1:43 AM,64.4,64.4,100,30.04,9.0,South,4.6,-,N/A,,Overcast,170,2013-07-02 05:43:00
1:54 AM,64.9,64.0,97,29.97,8.0,South,4.6,-,N/A,,Overcast,170,2013-07-02 05:54:00
2:06 AM,64.4,64.4,100,30.04,9.0,SSE,4.6,-,N/A,,Overcast,160,2013-07-02 06:06:00
2:24 AM,64.4,64.4,100,30.04,10.0,South,4.6,-,N/A,,Overcast,180,2013-07-02 06:24:00
2:54 AM,64.9,64.0,97,29.96,10.0,Calm,Calm,-,N/A,,Overcast,0,2013-07-02 06:54:00
3:36 AM,64.4,64.4,100,30.04,10.0,Calm,Calm,-,N/A,,Overcast,0,2013-07-02 07:36:00
3:54 AM,66.0,64.0,93,29.95,10.0,Calm,Calm,-,N/A,,Overcast,0,2013-07-02 07:54:00
4:25 AM,64.4,64.4,100,30.04,10.0,Calm,Calm,-,N/A,,Overcast,0,2013-07-02 08:25:00
4:54 AM,66.0,64.0,93,29.96,10.0,Calm,Calm,-,N/A,,Overcast,0,2013-07-02 08:54:00
5:30 AM,66.2,64.4,94,30.04,8.0,Calm,Calm,-,0.00,Rain,Light Rain,0,2013-07-02 09:30:00
5:52 AM,64.4,64.4,100,30.05,2.0,SW,3.5,-,0.08,Rain,Heavy Rain,220,2013-07-02 09:52:00
5:54 AM,64.9,64.9,100,29.98,1.8,SW,3.5,-,0.09,Rain,Heavy Rain,220,2013-07-02 09:54:00
6:05 AM,66.2,64.4,94,30.05,1.8,SSE,6.9,-,0.15,Rain,Heavy Rain,160,2013-07-02 10:05:00
6:09 AM,66.2,64.4,94,30.05,3.0,SSE,5.8,-,0.18,Rain,Rain,150,2013-07-02 10:09:00
6:34 AM,66.2,64.4,94,30.06,10.0,SSE,6.9,-,0.18,,Mostly Cloudy,150,2013-07-02 10:34:00
6:54 AM,66.0,64.0,93,30.00,10.0,SE,3.5,-,0.18,,Mostly Cloudy,130,2013-07-02 10:54:00
7:40 AM,66.2,64.4,94,30.09,10.0,Variable,3.5,-,0.00,Rain,Light Rain,0,2013-07-02 11:40:00
7:52 AM,66.2,64.4,94,30.09,5.0,Calm,Calm,-,0.01,Rain,Light Rain,0,2013-07-02 11:52:00
7:54 AM,66.0,64.9,96,30.02,6.0,Calm,Calm,-,0.01,Rain,Light Rain,0,2013-07-02 11:54:00
8:02 AM,66.2,64.4,94,30.08,10.0,Calm,Calm,-,0.00,,Mostly Cloudy,0,2013-07-02 12:02:00
8:31 AM,68.0,66.2,94,30.09,10.0,Calm,Calm,-,0.00,,Mostly Cloudy,0,2013-07-02 12:31:00
8:38 AM,68.0,66.2,94,30.09,10.0,Calm,Calm,-,0.00,,Mostly Cloudy,0,2013-07-02 12:38:00
8:54 AM,69.1,64.9,87,30.03,10.0,Calm,Calm,-,0.00,,Mostly Cloudy,0,2013-07-02 12:54:00
9:13 AM,69.8,66.2,88,30.10,10.0,SSE,3.5,-,N/A,,Overcast,160,2013-07-02 13:13:00
9:27 AM,71.6,66.2,83,30.11,10.0,South,6.9,-,N/A,,Overcast,180,2013-07-02 13:27:00
10:04 AM,73.4,66.2,78,30.11,10.0,SSE,8.1,-,0.01,,Scattered Clouds,150,2013-07-02 14:04:00
10:54 AM,73.0,64.9,76,30.05,10.0,South,9.2,-,0.01,,Mostly Cloudy,190,2013-07-02 14:54:00
11:54 AM,77.0,66.0,69,30.04,10.0,South,8.1,-,N/A,,Scattered Clouds,190,2013-07-02 15:54:00
12:54 PM,77.0,64.9,66,30.03,10.0,South,8.1,-,N/A,,Scattered Clouds,190,2013-07-02 16:54:00
1:54 PM,80.1,64.0,58,30.02,10.0,South,13.8,18.4,N/A,,Scattered Clouds,180,2013-07-02 17:54:00
2:54 PM,81.0,63.0,54,30.02,10.0,SSE,9.2,-,N/A,,Partly Cloudy,150,2013-07-02 18:54:00
3:54 PM,79.0,64.9,62,30.01,10.0,SE,10.4,19.6,N/A,,Mostly Cloudy,140,2013-07-02 19:54:00
4:54 PM,75.9,66.9,74,30.03,10.0,SE,9.2,17.3,N/A,,Scattered Clouds,130,2013-07-02 20:54:00
5:54 PM,72.0,68.0,87,30.05,10.0,SE,5.8,-,0.03,,Mostly Cloudy,130,2013-07-02 21:54:00
6:24 PM,73.4,68.0,83,30.12,10.0,SE,3.5,-,0.01,Rain,Light Rain,130,2013-07-02 22:24:00
6:31 PM,73.4,68.0,83,30.12,10.0,SE,5.8,-,0.01,,Mostly Cloudy,130,2013-07-02 22:31:00
6:54 PM,73.0,69.1,87,30.05,10.0,SE,4.6,-,0.01,,Mostly Cloudy,140,2013-07-02 22:54:00
7:54 PM,73.0,68.0,84,30.07,10.0,SSE,6.9,-,N/A,,Partly Cloudy,150,2013-07-02 23:54:00
8:54 PM,72.0,66.9,84,30.09,10.0,Variable,5.8,-,N/A,,Partly Cloudy,0,2013-07-03 00:54:00
9:31 PM,71.6,66.2,83,30.17,10.0,SSE,4.6,-,N/A,,Mostly Cloudy,150,2013-07-03 01:31:00
9:51 PM,69.8,66.2,88,30.17,10.0,SSE,6.9,-,N/A,,Mostly Cloudy,160,2013-07-03 01:51:00
9:54 PM,70.0,66.9,90,30.10,10.0,SSE,6.9,-,N/A,,Mostly Cloudy,160,2013-07-03 01:54:00
10:12 PM,71.6,66.2,83,30.18,10.0,SE,4.6,-,N/A,,Overcast,140,2013-07-03 02:12:00
10:54 PM,70.0,66.9,90,30.12,10.0,SE,4.6,-,N/A,,Overcast,140,2013-07-03 02:54:00
11:35 PM,69.8,66.2,88,30.21,10.0,SE,4.6,-,N/A,,Overcast,140,2013-07-03 03:35:00
11:54 PM,70.0,66.9,90,30.13,10.0,SE,3.5,-,N/A,,Overcast,140,2013-07-03 03:54:00